{"data":{"norad_id":59774,"intl_designator":"2024-092B","name":"2024-092B","alt_names":[],"object_type":"PAYLOAD","status":"ACTIVE","operator":null,"country":"CIS","launch_date":"2024-05-16","launch_site_code":"PLMSC","launch_vehicle":null,"mission":null,"orbit_class":"UNKNOWN","rcs_meters":null,"size_class":null,"mass_kg":null,"dimensions":null,"purposes":[],"wikipedia_slug":null,"has_3d_model":false,"image_url":null,"decayed_at":null,"tle_current":{"epoch":"2026-09-22T21:48:38.265408Z","epoch_age_seconds":64618,"freshness":"FRESH","line1":"1 59774U 24092B   26265.90877622  .00007654  00000+0  26371-3 0  9994","line2":"2 59774  97.6607  37.8722 0008190 189.7232 170.3851 15.30294514130472","mean_motion":15.30294514,"eccentricity":0.000819,"inclination_deg":97.6607,"raan_deg":37.8722,"arg_perigee_deg":189.7232,"mean_anomaly_deg":170.3851,"bstar":0.00026371,"rev_number":13047,"period_min":94.099533575143,"perigee_km":469.32021794263,"apogee_km":480.54554640963,"semimajor_km":6853.0698821761,"source":"CELESTRAK","updated_at":"2026-09-23T09:00:19.579037Z"}}}